This demonstration page uses our WeatherBlox Daily Observations layout. Learn more.

Left ArrowRight Arrow

31.84235, -102.49876

Hourly Observations for August 2, 2017

Temp ( °F °C ) Dew Point ( °F °C ) Humidity (%) Winds ( mph kmh ) Pressure ( in mb ) Visibility ( mi km ) Precip ( " mm )
12:30 am 00:30 Partly Cloudy with Light Rain 71 21.7 69 20.6 94 94 NE 6 9 30.03 1017 9 14 0.00 0.03
12:53 am 00:53 Partly Cloudy 70 21.1 69 20.6 97 97 NNE 6 9 30.05 1018 8 13 0.00 0.03
1:14 am 01:14 Mostly Cloudy 70 21.1 69 20.6 97 97 NE 8 13 30.00 1016 9 14 0.00 0.00
1:21 am 01:21 Partly Cloudy 70 21.1 69 20.6 97 97 NNE 7 11 30.00 1016 10 16 0.00 0.00
1:51 am 01:51 Mostly Clear 70 21 68 20 94 94 N 7 11 30.00 1016 10 16 0.00 0.00
1:53 am 01:53 Mostly Clear 70 21.1 68 20 93 93 N 6 9 30.03 1017 10 16 0.00 0.00
2:53 am 02:53 Clear 69 20.6 67 19.4 93 93 NNE 5 7 30.04 1017 10 16 0.00 0.00
3:53 am 03:53 Mostly Cloudy 69 20.6 68 20 96 96 NNE 6 9 30.04 1017 9 14 0.00 0.00
4:04 am 04:04 Mostly Cloudy 69 20.6 68 20 96 96 NNE 6 9 30.03 1017 8 13 0.00 0.00
4:12 am 04:12 Cloudy 70 21.1 68 20 93 93 NNE 8 13 30.03 1017 7 11 0.00 0.00
4:53 am 04:53 Cloudy with Mist and Fog 70 21.1 68 20 93 93 N 7 11 30.03 1017 5 8 0.00 0.00
5:13 am 05:13 Partly Cloudy with Mist and Fog 69 20.6 68 20 96 96 NNE 6 9 30.00 1016 5 8 0.00 0.00
5:53 am 05:53 Clear 70 21.1 68 20 93 93 NE 7 11 30.03 1017 7 11 0.00 0.00
6:14 am 06:14 Partly Cloudy 70 21.1 68 20 93 93 NE 7 11 30.03 1017 8 13 0.00 0.00
6:53 am 06:53 Mostly Cloudy 70 21.1 68 20 93 93 NNE 5 7 30.04 1017 7 11 0.00 0.00
7:02 am 07:02 Cloudy with Mist and Fog 70 21.1 68 20 93 93 NNE 6 9 30.03 1017 6 10 0.00 0.00
7:17 am 07:17 Cloudy with Mist and Fog 70 21.1 69 20.6 97 97 NE 8 13 30.03 1017 5 8 0.00 0.00
7:42 am 07:42 Cloudy 70 21.1 68 20 93 93 NE 8 13 30.03 1017 7 11 0.00 0.00
7:53 am 07:53 Cloudy with Mist and Fog 70 21.1 68 20 93 93 NE 9 15 30.06 1018 6 10 0.00 0.00
8:53 am 08:53 Cloudy with Light Rain 71 21.7 68 20 90 90 NE 8 13 30.08 1019 6 10 0.00 0.03
9:07 am 09:07 Cloudy 71 21.7 68 20 90 90 NE 10 17 30.06 1018 7 11 0.00 0.03
9:30 am 09:30 Mostly Cloudy 73 22.8 68 20 84 84 NE 14 22 30.06 1018 10 16 0.00 0.03
9:43 am 09:43 Mostly Cloudy 73 22.8 68 20 84 84 NE 12 19 30.06 1018 10 16 0.00 0.03
9:53 am 09:53 Mostly Cloudy 74 23.3 68 20 82 82 NNE 8 13 30.08 1019 10 16 0.00 0.03
10:13 am 10:13 Cloudy 73 22.8 67 19.4 81 81 NE 9 15 30.06 1018 10 16 0.00 0.00
10:53 am 10:53 Partly Cloudy 73 22.8 67 19.4 81 81 NE 13 20 30.09 1019 10 16 0.00 0.00
11:53 am 11:53 Mostly Cloudy 78 25.6 66 18.9 67 67 NNE 10 17 30.08 1019 10 16 0.00 0.00
12:53 pm 12:53 Partly Cloudy 79 26.1 64 17.8 60 60 NE 9 15 30.06 1018 10 16 0.00 0.00
1:53 pm 13:53 Sunny 81 27.2 62 16.7 53 53 NNE 9 15 30.04 1017 10 16 0.00 0.00
2:53 pm 14:53 Partly Cloudy 83 28.3 61 16.1 48 48 undefined N/A 30.03 1017 10 16 0.00 0.00
3:53 pm 15:53 Mostly Cloudy 83 28.3 62 16.7 49 49 NE 12 19 30.00 1016 10 16 0.00 0.00
4:53 pm 16:53 Sunny 84 28.9 58 14.4 41 41 NE 14 22 29.98 1015 10 16 0.00 0.00
5:53 pm 17:53 Mostly Sunny 85 29.4 59 15 42 42 ENE 14 22 29.96 1015 10 16 0.00 0.00
6:53 pm 18:53 Sunny 85 29.4 59 15 42 42 NE 12 19 29.94 1014 10 16 0.00 0.00
7:53 pm 19:53 Partly Cloudy 83 28.3 57 13.9 41 41 E 8 13 29.96 1014 10 16 0.00 0.00
8:53 pm 20:53 Clear 79 26.1 62 16.7 56 56 ESE 5 7 29.98 1015 10 16 0.00 0.00
9:53 pm 21:53 Clear 78 25.6 63 17.2 60 60 SE 3 6 29.99 1016 10 16 0.00 0.00
10:53 pm 22:53 Partly Cloudy 76 24.4 62 16.7 62 62 E 9 15 30.03 1017 10 16 0.00 0.00
11:53 pm 23:53 Clear 74 23.3 64 17.8 71 71 ESE 8 13 30.04 1017 10 16 0.00 0.00

Powered by AerisWeather